Time,TemperatureF,DewpointF,PressureIn,WindDirection,WindDirectionDegrees,WindSpeedMPH,WindSpeedGustMPH,Humidity,HourlyPrecipIn,Conditions,Clouds,dailyrainin,SoftwareType,DateUTC
2013-02-27 00:02:00,27.0,25.0,-100.00,NNW,345,16.0,23.0,91,0.00,,,-99.99,,2013-02-27 06:02:00,
2013-02-27 00:11:00,27.0,25.0,-100.00,North,350,17.0,22.0,91,0.00,,,-99.99,,2013-02-27 06:11:00,
2013-02-27 00:21:00,27.0,24.0,-100.00,North,350,19.0,23.0,91,0.00,,,-99.99,,2013-02-27 06:21:00,
2013-02-27 00:33:00,27.0,24.0,-100.00,North,350,18.0,24.0,90,0.00,,,-99.99,,2013-02-27 06:33:00,
2013-02-27 00:41:00,27.0,24.0,-100.00,North,350,18.0,24.0,90,0.00,,,-99.99,,2013-02-27 06:41:00,
2013-02-27 00:51:00,27.0,24.0,-100.00,NNW,345,19.0,24.0,90,0.00,,,-99.99,,2013-02-27 06:51:00,
2013-02-27 01:01:00,27.0,24.0,-100.00,NNW,345,19.0,24.0,90,0.00,,,-99.99,,2013-02-27 07:01:00,
2013-02-27 01:12:00,27.0,24.0,-100.00,NNW,340,19.0,24.0,90,0.00,,,-99.99,,2013-02-27 07:12:00,
2013-02-27 01:21:00,27.0,24.0,-100.00,NNW,345,17.0,24.0,90,0.00,,,-99.99,,2013-02-27 07:21:00,
2013-02-27 01:32:00,27.0,24.0,-100.00,NNW,345,20.0,26.0,90,0.00,,,-99.99,,2013-02-27 07:32:00,
2013-02-27 01:41:00,27.0,24.0,-100.00,NNW,345,20.0,26.0,90,0.00,,,-99.99,,2013-02-27 07:41:00,
2013-02-27 01:51:00,27.0,24.0,-100.00,North,350,24.0,27.0,89,0.00,,,-99.99,,2013-02-27 07:51:00,
2013-02-27 02:01:00,27.0,24.0,-100.00,North,350,24.0,27.0,89,0.00,,,-99.99,,2013-02-27 08:01:00,
2013-02-27 02:11:00,27.0,24.0,-100.00,North,350,21.0,27.0,89,0.00,,,-99.99,,2013-02-27 08:11:00,
2013-02-27 02:21:00,27.0,24.0,-100.00,North,350,22.0,28.0,89,0.00,,,-99.99,,2013-02-27 08:21:00,
2013-02-27 02:32:00,26.0,24.0,-100.00,North,350,21.0,28.0,88,0.00,,,-99.99,,2013-02-27 08:32:00,
2013-02-27 02:41:00,26.0,24.0,-100.00,North,350,21.0,28.0,88,0.00,,,-99.99,,2013-02-27 08:41:00,
2013-02-27 02:52:00,26.0,23.0,-100.00,North,350,18.0,27.0,88,0.00,,,-99.99,,2013-02-27 08:52:00,
2013-02-27 03:02:00,26.0,23.0,-100.00,North,350,18.0,27.0,88,0.00,,,-99.99,,2013-02-27 09:02:00,
2013-02-27 03:11:00,26.0,23.0,-100.00,North,350,20.0,24.0,88,0.00,,,-99.99,,2013-02-27 09:11:00,
2013-02-27 03:21:00,26.0,23.0,-100.00,North,350,20.0,26.0,88,0.00,,,-99.99,,2013-02-27 09:21:00,
2013-02-27 03:32:00,26.0,23.0,-100.00,North,355,18.0,22.0,89,0.00,,,-99.99,,2013-02-27 09:32:00,
2013-02-27 03:41:00,26.0,23.0,-100.00,North,355,18.0,22.0,89,0.00,,,-99.99,,2013-02-27 09:41:00,
2013-02-27 03:51:00,26.0,23.0,-100.00,North,350,21.0,26.0,89,0.00,,,-99.99,,2013-02-27 09:51:00,
2013-02-27 04:01:00,26.0,23.0,-100.00,North,350,21.0,26.0,89,0.00,,,-99.99,,2013-02-27 10:01:00,
2013-02-27 04:12:00,25.0,23.0,-100.00,North,355,18.0,24.0,89,0.00,,,-99.99,,2013-02-27 10:12:00,
2013-02-27 04:21:00,25.0,23.0,-100.00,NNW,345,16.0,24.0,89,0.00,,,-99.99,,2013-02-27 10:21:00,
2013-02-27 04:32:00,25.0,22.0,-100.00,North,350,18.0,21.0,89,0.00,,,-99.99,,2013-02-27 10:32:00,
2013-02-27 04:42:00,25.0,22.0,-100.00,North,350,18.0,21.0,89,0.00,,,-99.99,,2013-02-27 10:42:00,
2013-02-27 04:52:00,25.0,22.0,-100.00,NNW,345,17.0,22.0,90,0.00,,,-99.99,,2013-02-27 10:52:00,
2013-02-27 05:02:00,25.0,22.0,-100.00,NNW,345,17.0,22.0,90,0.00,,,-99.99,,2013-02-27 11:02:00,
2013-02-27 05:12:00,25.0,22.0,-100.00,NNW,345,19.0,22.0,90,0.00,,,-99.99,,2013-02-27 11:12:00,
2013-02-27 05:22:00,24.0,22.0,-100.00,NNW,345,17.0,22.0,90,0.00,,,-99.99,,2013-02-27 11:22:00,
2013-02-27 05:32:00,24.0,22.0,-100.00,NNW,345,17.0,21.0,90,0.00,,,-99.99,,2013-02-27 11:32:00,
2013-02-27 05:41:00,24.0,22.0,-100.00,NNW,345,17.0,21.0,90,0.00,,,-99.99,,2013-02-27 11:41:00,
2013-02-27 05:52:00,24.0,21.0,-100.00,NNW,345,15.0,19.0,90,0.00,,,-99.99,,2013-02-27 11:52:00,
2013-02-27 06:02:00,24.0,21.0,-100.00,NNW,345,15.0,19.0,90,0.00,,,-99.99,,2013-02-27 12:02:00,
2013-02-27 06:13:00,24.0,22.0,-100.00,NNW,335,13.0,19.0,91,0.01,,,-99.99,,2013-02-27 12:13:00,
2013-02-27 06:22:00,24.0,21.0,-100.00,NNW,340,16.0,21.0,91,0.00,,,-99.99,,2013-02-27 12:22:00,
2013-02-27 06:32:00,23.0,21.0,-100.00,NNW,335,17.0,21.0,91,0.01,,,-99.99,,2013-02-27 12:32:00,
2013-02-27 06:42:00,23.0,21.0,-100.00,NNW,335,17.0,21.0,91,0.01,,,-99.99,,2013-02-27 12:42:00,
2013-02-27 06:52:00,23.0,21.0,-100.00,NNW,335,17.0,23.0,91,0.00,,,-99.99,,2013-02-27 12:52:00,
2013-02-27 07:02:00,23.0,21.0,-100.00,NNW,335,17.0,23.0,91,0.00,,,-99.99,,2013-02-27 13:02:00,
2013-02-27 07:11:00,23.0,21.0,-100.00,NNW,335,16.0,21.0,91,0.00,,,-99.99,,2013-02-27 13:11:00,
2013-02-27 07:22:00,23.0,21.0,-100.00,NNW,330,14.0,22.0,91,0.00,,,-99.99,,2013-02-27 13:22:00,
2013-02-27 07:32:00,24.0,21.0,-100.00,NNW,335,16.0,24.0,89,0.00,,,-99.99,,2013-02-27 13:32:00,
2013-02-27 07:42:00,24.0,21.0,-100.00,NNW,335,16.0,24.0,89,0.00,,,-99.99,,2013-02-27 13:42:00,
2013-02-27 07:52:00,23.0,20.0,-100.00,NNW,340,16.0,23.0,88,0.00,,,-99.99,,2013-02-27 13:52:00,
2013-02-27 08:02:00,23.0,20.0,-100.00,NNW,340,16.0,23.0,88,0.00,,,-99.99,,2013-02-27 14:02:00,
2013-02-27 08:12:00,23.0,20.0,-100.00,NNW,335,18.0,24.0,88,0.00,,,-99.99,,2013-02-27 14:12:00,
2013-02-27 08:21:00,23.0,20.0,-100.00,NNW,335,17.0,26.0,88,0.00,,,-99.99,,2013-02-27 14:21:00,
2013-02-27 08:32:00,24.0,21.0,-100.00,NNW,335,16.0,23.0,88,0.01,,,-99.99,,2013-02-27 14:32:00,
2013-02-27 08:42:00,24.0,21.0,-100.00,NNW,335,16.0,23.0,88,0.01,,,-99.99,,2013-02-27 14:42:00,
2013-02-27 08:52:00,24.0,21.0,-100.00,NNW,340,17.0,23.0,88,0.01,,,-99.99,,2013-02-27 14:52:00,
2013-02-27 09:02:00,24.0,21.0,-100.00,NNW,340,17.0,23.0,88,0.01,,,-99.99,,2013-02-27 15:02:00,
2013-02-27 09:12:00,24.0,21.0,-100.00,NNW,340,17.0,24.0,88,0.01,,,-99.99,,2013-02-27 15:12:00,
2013-02-27 09:22:00,24.0,21.0,-100.00,NNW,345,17.0,24.0,89,0.01,,,-99.99,,2013-02-27 15:22:00,
2013-02-27 09:32:00,24.0,22.0,-100.00,NNW,345,16.0,21.0,89,0.01,,,-99.99,,2013-02-27 15:32:00,
2013-02-27 09:42:00,24.0,22.0,-100.00,NNW,345,16.0,21.0,89,0.01,,,-99.99,,2013-02-27 15:42:00,
2013-02-27 09:52:00,25.0,22.0,-100.00,NNW,345,16.0,22.0,89,0.13,,,-99.99,,2013-02-27 15:52:00,
2013-02-27 10:02:00,25.0,22.0,-100.00,NNW,345,16.0,22.0,89,0.13,,,-99.99,,2013-02-27 16:02:00,
2013-02-27 10:11:00,25.0,22.0,-100.00,North,350,16.0,23.0,90,0.03,,,-99.99,,2013-02-27 16:11:00,
2013-02-27 10:22:00,25.0,23.0,-100.00,NNW,345,13.0,23.0,90,0.01,,,-99.99,,2013-02-27 16:22:00,
2013-02-27 10:32:00,26.0,23.0,-100.00,NNW,345,13.0,22.0,90,0.01,,,-99.99,,2013-02-27 16:32:00,
2013-02-27 10:42:00,26.0,23.0,-100.00,NNW,345,13.0,22.0,90,0.01,,,-99.99,,2013-02-27 16:42:00,
2013-02-27 10:52:00,26.0,24.0,-100.00,NNW,345,14.0,23.0,90,0.00,,,-99.99,,2013-02-27 16:52:00,
2013-02-27 11:02:00,26.0,24.0,-100.00,NNW,345,14.0,23.0,90,0.00,,,-99.99,,2013-02-27 17:02:00,
2013-02-27 11:11:00,27.0,24.0,-100.00,NNW,345,18.0,22.0,89,0.01,,,-99.99,,2013-02-27 17:11:00,
2013-02-27 11:21:00,27.0,24.0,-100.00,NNW,340,16.0,25.0,89,0.00,,,-99.99,,2013-02-27 17:21:00,
2013-02-27 11:32:00,27.0,23.0,-100.00,NNW,345,21.0,26.0,87,0.00,,,-99.99,,2013-02-27 17:32:00,
2013-02-27 11:42:00,27.0,23.0,-100.00,NNW,345,21.0,26.0,87,0.00,,,-99.99,,2013-02-27 17:42:00,
2013-02-27 11:52:00,27.0,24.0,-100.00,NNW,335,17.0,24.0,86,0.00,,,-99.99,,2013-02-27 17:52:00,
2013-02-27 12:01:00,27.0,24.0,-100.00,NNW,335,17.0,24.0,86,0.00,,,-99.99,,2013-02-27 18:01:00,
2013-02-27 12:11:00,27.0,24.0,-100.00,NNW,335,21.0,27.0,86,0.00,,,-99.99,,2013-02-27 18:11:00,
2013-02-27 12:22:00,27.0,24.0,-100.00,NNW,345,20.0,29.0,87,0.00,,,-99.99,,2013-02-27 18:22:00,
2013-02-27 12:32:00,27.0,24.0,-100.00,NNW,345,23.0,29.0,87,0.00,,,-99.99,,2013-02-27 18:32:00,
2013-02-27 12:42:00,27.0,24.0,-100.00,NNW,345,23.0,29.0,87,0.00,,,-99.99,,2013-02-27 18:42:00,
2013-02-27 12:51:00,27.0,24.0,-100.00,NNW,345,21.0,28.0,86,0.00,,,-99.99,,2013-02-27 18:51:00,
2013-02-27 13:01:00,27.0,24.0,-100.00,NNW,345,21.0,28.0,86,0.00,,,-99.99,,2013-02-27 19:01:00,
2013-02-27 13:11:00,27.0,24.0,-100.00,NNW,345,21.0,30.0,85,0.00,,,-99.99,,2013-02-27 19:11:00,
2013-02-27 13:21:00,27.0,24.0,-100.00,NNW,345,23.0,30.0,85,0.00,,,-99.99,,2013-02-27 19:21:00,
2013-02-27 13:32:00,27.0,24.0,-100.00,NNW,345,26.0,32.0,84,0.00,,,-99.99,,2013-02-27 19:32:00,
2013-02-27 13:42:00,27.0,24.0,-100.00,NNW,345,26.0,32.0,84,0.00,,,-99.99,,2013-02-27 19:42:00,
2013-02-27 13:52:00,28.0,23.0,-100.00,NNW,340,24.0,32.0,83,0.00,,,-99.99,,2013-02-27 19:52:00,
2013-02-27 14:01:00,28.0,23.0,-100.00,NNW,340,24.0,32.0,83,0.00,,,-99.99,,2013-02-27 20:01:00,
2013-02-27 14:11:00,28.0,23.0,-100.00,NNW,335,22.0,31.0,82,0.00,,,-99.99,,2013-02-27 20:11:00,
2013-02-27 14:21:00,28.0,23.0,-100.00,NNW,330,18.0,29.0,81,0.00,,,-99.99,,2013-02-27 20:21:00,
2013-02-27 14:32:00,28.0,23.0,-100.00,North,355,23.0,30.0,80,0.00,,,-99.99,,2013-02-27 20:32:00,
2013-02-27 14:42:00,28.0,23.0,-100.00,North,355,23.0,30.0,80,0.00,,,-99.99,,2013-02-27 20:42:00,
2013-02-27 14:52:00,29.0,23.0,-100.00,North,350,18.0,22.0,78,0.00,,,-99.99,,2013-02-27 20:52:00,
2013-02-27 15:02:00,29.0,23.0,-100.00,North,350,18.0,22.0,78,0.00,,,-99.99,,2013-02-27 21:02:00,
2013-02-27 15:11:00,30.0,24.0,-100.00,North,350,15.0,20.0,77,0.74,,,-99.99,,2013-02-27 21:11:00,
2013-02-27 15:21:00,30.0,24.0,-100.00,NNW,330,13.0,19.0,77,0.82,,,-99.99,,2013-02-27 21:21:00,
2013-02-27 15:32:00,32.0,24.0,-100.00,NNW,340,22.0,30.0,73,0.71,,,-99.99,,2013-02-27 21:32:00,
2013-02-27 15:42:00,32.0,24.0,-100.00,NNW,340,22.0,30.0,73,0.71,,,-99.99,,2013-02-27 21:42:00,
2013-02-27 15:51:00,33.0,25.0,-100.00,NNW,345,26.0,30.0,71,0.65,,,-99.99,,2013-02-27 21:51:00,
2013-02-27 16:01:00,33.0,25.0,-100.00,NNW,345,26.0,30.0,71,0.65,,,-99.99,,2013-02-27 22:01:00,
2013-02-27 16:11:00,33.0,25.0,-100.00,North,350,28.0,32.0,70,0.67,,,-99.99,,2013-02-27 22:11:00,
2013-02-27 16:21:00,33.0,25.0,-100.00,North,350,23.0,35.0,70,0.64,,,-99.99,,2013-02-27 22:21:00,
2013-02-27 16:31:00,34.0,25.0,-100.00,NNW,345,23.0,30.0,70,0.64,,,-99.99,,2013-02-27 22:31:00,
2013-02-27 16:41:00,34.0,25.0,-100.00,NNW,345,21.0,29.0,70,0.64,,,-99.99,,2013-02-27 22:41:00,
2013-02-27 16:51:00,34.0,25.0,-100.00,NNW,340,22.0,28.0,70,0.69,,,-99.99,,2013-02-27 22:51:00,
2013-02-27 17:01:00,34.0,25.0,-100.00,NNW,340,22.0,28.0,70,0.69,,,-99.99,,2013-02-27 23:01:00,
2013-02-27 17:11:00,34.0,25.0,-100.00,North,350,22.0,28.0,69,0.62,,,-99.99,,2013-02-27 23:11:00,
2013-02-27 17:21:00,34.0,25.0,-100.00,North,350,22.0,28.0,69,0.62,,,-99.99,,2013-02-27 23:21:00,
2013-02-27 17:32:00,34.0,25.0,-100.00,North,350,22.0,26.0,70,0.61,,,-99.99,,2013-02-27 23:32:00,
2013-02-27 17:42:00,34.0,25.0,-100.00,North,350,22.0,26.0,70,0.61,,,-99.99,,2013-02-27 23:42:00,
2013-02-27 17:52:00,34.0,25.0,-100.00,North,350,21.0,29.0,69,0.68,,,-99.99,,2013-02-27 23:52:00,
2013-02-27 18:01:00,34.0,25.0,-100.00,North,350,21.0,29.0,69,0.68,,,-99.99,,2013-02-28 00:01:00,
2013-02-27 18:11:00,34.0,25.0,-100.00,NNW,345,20.0,24.0,69,0.65,,,-99.99,,2013-02-28 00:11:00,
2013-02-27 18:21:00,33.0,25.0,-100.00,NNW,345,17.0,24.0,70,0.61,,,-99.99,,2013-02-28 00:21:00,
2013-02-27 18:32:00,33.0,25.0,-100.00,NNW,335,19.0,24.0,71,0.61,,,-99.99,,2013-02-28 00:32:00,
2013-02-27 18:42:00,33.0,25.0,-100.00,NNW,335,19.0,24.0,71,0.61,,,-99.99,,2013-02-28 00:42:00,
2013-02-27 18:51:00,32.0,24.0,-100.00,NNW,335,17.0,27.0,70,0.75,,,-99.99,,2013-02-28 00:51:00,
2013-02-27 19:01:00,32.0,24.0,-100.00,NNW,335,17.0,27.0,70,0.75,,,-99.99,,2013-02-28 01:01:00,
2013-02-27 19:11:00,32.0,24.0,-100.00,NNW,330,16.0,26.0,71,0.75,,,-99.99,,2013-02-28 01:11:00,
2013-02-27 19:21:00,32.0,23.0,-100.00,NNW,335,22.0,28.0,70,0.76,,,-99.99,,2013-02-28 01:21:00,
2013-02-27 19:32:00,31.0,22.0,-100.00,NNW,345,24.0,31.0,66,0.84,,,-99.99,,2013-02-28 01:32:00,
2013-02-27 19:41:00,31.0,22.0,-100.00,NNW,345,24.0,31.0,66,0.84,,,-99.99,,2013-02-28 01:41:00,
2013-02-27 19:51:00,31.0,21.0,-100.00,NNW,330,21.0,29.0,65,0.79,,,-99.99,,2013-02-28 01:51:00,
2013-02-27 20:01:00,31.0,21.0,-100.00,NNW,330,21.0,29.0,65,0.79,,,-99.99,,2013-02-28 02:01:00,
2013-02-27 20:11:00,31.0,21.0,-100.00,NNW,335,19.0,28.0,66,0.76,,,-99.99,,2013-02-28 02:11:00,
2013-02-27 20:22:00,31.0,22.0,-100.00,NNW,330,17.0,26.0,69,0.72,,,-99.99,,2013-02-28 02:22:00,
2013-02-27 20:31:00,29.0,22.0,-100.00,NW,325,13.0,26.0,75,0.00,,,-99.99,,2013-02-28 02:31:00,
2013-02-27 20:41:00,29.0,22.0,-100.00,NW,325,13.0,26.0,75,0.00,,,-99.99,,2013-02-28 02:41:00,
2013-02-27 20:51:00,29.0,22.0,-100.00,NW,325,13.0,26.0,75,0.00,,,-99.99,,2013-02-28 02:51:00,
2013-02-27 21:01:00,28.0,22.0,-100.00,NNW,335,21.0,28.0,75,0.00,,,-99.99,,2013-02-28 03:01:00,
2013-02-27 21:11:00,28.0,21.0,-100.00,NNW,330,21.0,28.0,75,0.00,,,-99.99,,2013-02-28 03:11:00,
2013-02-27 21:21:00,27.0,21.0,-100.00,NNW,330,19.0,29.0,76,0.00,,,-99.99,,2013-02-28 03:21:00,
2013-02-27 21:32:00,27.0,21.0,-100.00,NNW,335,19.0,27.0,78,0.00,,,-99.99,,2013-02-28 03:32:00,
2013-02-27 21:41:00,27.0,21.0,-100.00,NNW,335,19.0,27.0,78,0.00,,,-99.99,,2013-02-28 03:41:00,
2013-02-27 21:52:00,26.0,21.0,-100.00,NNW,335,18.0,26.0,81,0.00,,,-99.99,,2013-02-28 03:52:00,
2013-02-27 22:01:00,26.0,21.0,-100.00,NNW,335,18.0,26.0,81,0.00,,,-99.99,,2013-02-28 04:01:00,
2013-02-27 22:11:00,26.0,21.0,-100.00,NNW,335,20.0,29.0,81,0.00,,,-99.99,,2013-02-28 04:11:00,
2013-02-27 22:21:00,26.0,21.0,-100.00,NNW,335,18.0,27.0,82,0.00,,,-99.99,,2013-02-28 04:21:00,
2013-02-27 22:32:00,25.0,21.0,-100.00,NNW,330,19.0,25.0,83,0.00,,,-99.99,,2013-02-28 04:32:00,
2013-02-27 22:42:00,25.0,21.0,-100.00,NNW,330,19.0,25.0,83,0.00,,,-99.99,,2013-02-28 04:42:00,
2013-02-27 22:51:00,25.0,21.0,-100.00,NNW,330,17.0,26.0,84,0.00,,,-99.99,,2013-02-28 04:51:00,
2013-02-27 23:01:00,25.0,21.0,-100.00,NNW,330,17.0,26.0,84,0.00,,,-99.99,,2013-02-28 05:01:00,
2013-02-27 23:11:00,25.0,21.0,-100.00,NNW,335,17.0,26.0,84,0.00,,,-99.99,,2013-02-28 05:11:00,
2013-02-27 23:22:00,25.0,21.0,-100.00,NNW,335,17.0,26.0,84,0.00,,,-99.99,,2013-02-28 05:22:00,
2013-02-27 23:31:00,24.0,20.0,-100.00,NNW,340,16.0,24.0,85,0.00,,,-99.99,,2013-02-28 05:31:00,
2013-02-27 23:42:00,24.0,20.0,-100.00,NNW,340,16.0,24.0,85,0.00,,,-99.99,,2013-02-28 05:42:00,
2013-02-27 23:52:00,24.0,20.0,-100.00,NNW,335,16.0,22.0,85,0.00,,,-99.99,,2013-02-28 05:52:00,